OBJECT G

Last updated on Tue Oct 09 2018 08:17:17 GMT+0000 (Coordinated Universal Time)

1 43186U 18014G 18282.16000800 .00000811 00000-0 76386-4 0 9996 2 43186 97.7164 189.1195 0012416 125.8682 234.3694 14.96510899 37360

Satellite not in orbit

OBJECT G